When you browse on this site, cookies collect data to enhance your experience and personalize the content and advertising you see.
Visit our Privacy Policy to learn more. By continuing to use the site, you agree to this use of cookies and data.
  • In Hungary
  • List of Countries
  • For 7 days
  • Water Temperature
  • Weather Map
  • News
  • Weather Widgets
  • user-avatar
    Login

    Hourly Weather Elshanka

    Today, 22 January, Wednesday

    Time Temperature Precipitation Wind Pressure Humidity
    00:00 -6°C° 0.2 mm 7 mps 742 mmHg 95%
    01:00 -4°C° 0.8 mm 7 mps 741 mmHg 96%
    02:00 -4°C° 0.8 mm 7 mps 740 mmHg 96%
    03:00 -4°C° 0.8 mm 6 mps 740 mmHg 96%
    04:00 -4°C° 0.7 mm 6 mps 739 mmHg 97%
    05:00 -3°C° 0.7 mm 6 mps 738 mmHg 97%
    06:00 -2°C° 0.7 mm 5 mps 737 mmHg 98%
    07:00 -2°C° 0.4 mm 5 mps 736 mmHg 98%
    08:00 -1°C° 0.4 mm 4 mps 736 mmHg 99%
    09:00 -1°C° 0.4 mm 4 mps 736 mmHg 99%
    10:00 -1°C° 0 mm 5 mps 736 mmHg 99%
    11:00 -1°C° 0 mm 5 mps 736 mmHg 98%
    12:00 -2°C° 0 mm 6 mps 736 mmHg 98%
    13:00 -3°C° 0.1 mm 6 mps 737 mmHg 94%
    14:00 -3°C° 0.1 mm 6 mps 737 mmHg 90%
    15:00 -4°C° 0.1 mm 6 mps 738 mmHg 87%
    16:00 -5°C° 0 mm 5 mps 738 mmHg 88%
    17:00 -6°C° 0 mm 5 mps 738 mmHg 90%
    18:00 -5°C° 0 mm 4 mps 739 mmHg 91%
    19:00 -7°C° 0 mm 4 mps 739 mmHg 91%
    20:00 -7°C° 0 mm 4 mps 739 mmHg 92%
    21:00 -7°C° 0 mm 4 mps 739 mmHg 92%
    22:00 -7°C° 0 mm 4 mps 739 mmHg 93%
    23:00 -7°C° 0 mm 3 mps 739 mmHg 94%

    Tomorrow, 23 January, Thursday

    Time Temperature Precipitation Wind Pressure Humidity
    00:00 -7°C° 0 mm 3 mps 739 mmHg 95%
    01:00 -8°C° 0 mm 3 mps 739 mmHg 95%
    02:00 -8°C° 0 mm 3 mps 739 mmHg 95%
    03:00 -9°C° 0 mm 3 mps 739 mmHg 96%
    04:00 -8°C° 0 mm 2 mps 739 mmHg 96%
    05:00 -8°C° 0 mm 2 mps 739 mmHg 96%
    06:00 -9°C° 0 mm 2 mps 739 mmHg 96%
    07:00 -9°C° 0.2 mm 3 mps 739 mmHg 96%
    08:00 -8°C° 0.2 mm 3 mps 740 mmHg 95%
    09:00 -7°C° 0.2 mm 3 mps 740 mmHg 95%
    10:00 -8°C° 0.1 mm 4 mps 740 mmHg 95%
    11:00 -7°C° 0.1 mm 4 mps 740 mmHg 95%
    12:00 -5°C° 0.1 mm 4 mps 740 mmHg 95%
    13:00 -5°C° 0.3 mm 4 mps 740 mmHg 94%
    14:00 -7°C° 0.3 mm 4 mps 741 mmHg 94%
    15:00 -7°C° 0.3 mm 4 mps 741 mmHg 93%
    16:00 -8°C° 0 mm 4 mps 742 mmHg 94%
    17:00 -8°C° 0 mm 3 mps 742 mmHg 95%
    18:00 -8°C° 0 mm 2 mps 743 mmHg 96%
    19:00 -9°C° 0.1 mm 3 mps 744 mmHg 95%
    20:00 -10°C° 0.1 mm 4 mps 745 mmHg 94%
    21:00 -9°C° 0.1 mm 4 mps 746 mmHg 93%
    22:00 -11°C° 0 mm 4 mps 746 mmHg 94%
    23:00 -12°C° 0 mm 4 mps 747 mmHg 94%

    Day after tomorrow, 24 January, Friday

    Time Temperature Precipitation Wind Pressure Humidity
    00:00 -13°C° 0 mm 3 mps 748 mmHg 95%
    01:00 -14°C° 0 mm 3 mps 749 mmHg 95%
    02:00 -14°C° 0 mm 3 mps 749 mmHg 95%
    03:00 -15°C° 0 mm 3 mps 750 mmHg 96%
    04:00 -15°C° 0 mm 3 mps 750 mmHg 96%
    05:00 -16°C° 0 mm 3 mps 751 mmHg 96%
    06:00 -16°C° 0 mm 3 mps 751 mmHg 96%
    07:00 -16°C° 0 mm 3 mps 752 mmHg 96%
    08:00 -16°C° 0 mm 3 mps 752 mmHg 95%
    09:00 -16°C° 0 mm 3 mps 753 mmHg 95%
    10:00 -15°C° 0 mm 3 mps 753 mmHg 94%
    11:00 -14°C° 0 mm 3 mps 753 mmHg 93%
    12:00 -12°C° 0 mm 4 mps 753 mmHg 92%
    13:00 -12°C° 0 mm 4 mps 753 mmHg 93%
    14:00 -14°C° 0 mm 4 mps 753 mmHg 93%
    15:00 -13°C° 0 mm 3 mps 753 mmHg 93%
    16:00 -14°C° 0 mm 4 mps 753 mmHg 94%
    17:00 -14°C° 0 mm 4 mps 753 mmHg 94%
    18:00 -15°C° 0 mm 4 mps 753 mmHg 94%
    19:00 -15°C° 0 mm 4 mps 753 mmHg 94%
    20:00 -15°C° 0 mm 4 mps 752 mmHg 94%
    21:00 -15°C° 0 mm 4 mps 752 mmHg 93%
    22:00 -15°C° 0 mm 4 mps 752 mmHg 93%
    23:00 -15°C° 0 mm 5 mps 751 mmHg 93%

    25 January, Saturday

    Time Temperature Precipitation Wind Pressure Humidity
    00:00 -15°C° 0 mm 5 mps 751 mmHg 93%
    01:00 -14°C° 0.2 mm 5 mps 750 mmHg 93%
    02:00 -14°C° 0.2 mm 6 mps 750 mmHg 93%
    03:00 -12°C° 0.2 mm 6 mps 749 mmHg 93%
    04:00 -11°C° 0.1 mm 6 mps 748 mmHg 93%
    05:00 -11°C° 0.1 mm 6 mps 748 mmHg 93%
    06:00 -10°C° 0.1 mm 6 mps 748 mmHg 93%
    07:00 -9°C° 0.1 mm 6 mps 748 mmHg 93%
    08:00 -9°C° 0.1 mm 6 mps 748 mmHg 93%
    09:00 -7°C° 0.1 mm 5 mps 748 mmHg 94%
    10:00 -6°C° 0.1 mm 5 mps 748 mmHg 93%
    11:00 -5°C° 0.1 mm 6 mps 748 mmHg 93%
    12:00 -4°C° 0.1 mm 6 mps 748 mmHg 92%
    13:00 -4°C° 0 mm 5 mps 748 mmHg 91%
    14:00 -4°C° 0 mm 4 mps 748 mmHg 91%
    15:00 -4°C° 0 mm 3 mps 748 mmHg 90%
    16:00 -5°C° 0 mm 3 mps 748 mmHg 91%
    17:00 -7°C° 0 mm 3 mps 748 mmHg 92%
    18:00 -8°C° 0 mm 3 mps 748 mmHg 93%
    19:00 -6°C° 0.1 mm 3 mps 747 mmHg 95%
    20:00 -4°C° 0.1 mm 4 mps 747 mmHg 96%
    21:00 -4°C° 0.1 mm 5 mps 746 mmHg 97%
    22:00 -2°C° 0.4 mm 5 mps 745 mmHg 97%
    23:00 -2°C° 0.4 mm 6 mps 745 mmHg 98%

    26 January, Sunday

    Time Temperature Precipitation Wind Pressure Humidity
    00:00 -2°C° 0.4 mm 6 mps 744 mmHg 98%
    01:00 -2°C° 0.2 mm 7 mps 744 mmHg 97%
    02:00 -2°C° 0.2 mm 7 mps 743 mmHg 95%
    03:00 -2°C° 0.2 mm 7 mps 743 mmHg 94%
    04:00 -3°C° 0 mm 7 mps 743 mmHg 92%
    05:00 -3°C° 0 mm 7 mps 742 mmHg 91%
    06:00 -4°C° 0 mm 7 mps 742 mmHg 90%
    07:00 -4°C° 0.1 mm 7 mps 742 mmHg 91%
    08:00 -4°C° 0.1 mm 7 mps 742 mmHg 93%
    09:00 -4°C° 0.1 mm 7 mps 742 mmHg 95%
    10:00 -5°C° 0.3 mm 8 mps 742 mmHg 91%
    11:00 -5°C° 0.3 mm 8 mps 742 mmHg 86%
    12:00 -6°C° 0.3 mm 9 mps 742 mmHg 82%
    13:00 -6°C° 0.2 mm 8 mps 743 mmHg 85%
    14:00 -6°C° 0.2 mm 8 mps 743 mmHg 87%
    15:00 -6°C° 0.2 mm 8 mps 744 mmHg 89%
    16:00 -6°C° 0.1 mm 8 mps 745 mmHg 90%
    17:00 -7°C° 0.1 mm 8 mps 746 mmHg 90%
    18:00 -7°C° 0.1 mm 8 mps 747 mmHg 90%
    19:00 -7°C° 0.1 mm 7 mps 748 mmHg 91%
    20:00 -8°C° 0.1 mm 7 mps 748 mmHg 91%
    21:00 -8°C° 0.1 mm 7 mps 749 mmHg 91%
    22:00 -8°C° 0.1 mm 7 mps 750 mmHg 91%
    23:00 -9°C° 0.1 mm 7 mps 751 mmHg 90%

    27 January, Monday

    Time Temperature Precipitation Wind Pressure Humidity
    00:00 -9°C° 0.1 mm 6 mps 752 mmHg 90%
    01:00 -9°C° 0.1 mm 7 mps 753 mmHg 89%
    02:00 -11°C° 0.1 mm 7 mps 753 mmHg 89%
    03:00 -11°C° 0.1 mm 7 mps 754 mmHg 88%
    04:00 -11°C° 0 mm 6 mps 755 mmHg 89%
    05:00 -12°C° 0 mm 5 mps 756 mmHg 90%
    06:00 -12°C° 0 mm 4 mps 757 mmHg 90%
    07:00 -14°C° 0 mm 4 mps 757 mmHg 91%
    08:00 -15°C° 0 mm 4 mps 758 mmHg 92%
    09:00 -14°C° 0 mm 3 mps 759 mmHg 93%
    10:00 -14°C° 0 mm 4 mps 760 mmHg 92%
    11:00 -12°C° 0 mm 4 mps 760 mmHg 92%
    12:00 -11°C° 0 mm 4 mps 761 mmHg 91%
    13:00 -10°C° 0 mm 3 mps 761 mmHg 92%
    14:00 -10°C° 0 mm 3 mps 762 mmHg 94%
    15:00 -9°C° 0 mm 2 mps 762 mmHg 95%
    16:00 -10°C° 0 mm 2 mps 762 mmHg 95%
    17:00 -12°C° 0 mm 2 mps 763 mmHg 95%
    18:00 -13°C° 0 mm 2 mps 763 mmHg 95%
    19:00 -13°C° 0 mm 2 mps 763 mmHg 94%
    20:00 -13°C° 0 mm 2 mps 763 mmHg 94%
    21:00 -13°C° 0 mm 2 mps 763 mmHg 94%
    22:00 -13°C° 0 mm 3 mps 763 mmHg 94%
    23:00 -13°C° 0 mm 3 mps 762 mmHg 94%
    Show more